Location: Sungai Jaoh
(2.9167°N, 113.9167°E)
Time: 05:51:22
(UTC+00:00)

Ariane 44LP R/B - Pass Details

Date: 30 November 2020
Orbit: 530 x 17779 km, 3.5° (Epoch: 25 January)

Event Time Altitude Azimuth Distance (km) Brightness Sun altitude
Exits shadow 20:39:38 44° 216° (SW) 820 4.0 -22.8°
Maximum altitude 20:40:18 51° 179° (S) 791 4.1 -22.6°
Drops below altitude 10° 20:46:06 10° 103° (ESE) 3,130 8.3 -21.3°
Sets 20:51:01 0° 98° (E) 5,381 9.8 -20.2°
